Location: Castelnau
(43.6639°N, 0.8431°W)
Time: 22:32:19
(UTC+00:00)

Cosmos 1743 Rocket - Pass Details

Date: 13 January 2026
Orbit: 597 x 626 km, 82.6° (Epoch: 11 February)

Event Time Altitude Azimuth Distance (km) Brightness Sun altitude
Rises 06:45:49 0° 207° (SSW) 2,898 6.9 -8.8°
Reaches altitude 10° 06:48:10 10° 216° (SW) 1,996 6.0 -8.4°
Maximum altitude 06:52:17 37° 284° (WNW) 974 4.1 -7.8°
Drops below altitude 10° 06:56:25 10° 352° (N) 2,003 5.9 -7.1°
Sets 06:58:48 0° 1° (N) 2,910 6.8 -6.7°
